306  
ASUS41 KCLE 231112  
RWRCLE  
OHIO REGIONAL WEATHER ROUNDUP  
NATIONAL WEATHER SERVICE WILMINGTON, OH  
600 AM EST FRI FEB 23 2024  
 
NOTE: "FAIR" INDICATES FEW OR NO CLOUDS BELOW 12,000 FEET WITH NO  
SIGNIFICANT WEATHER AND/OR S TO VISIBILITY
.  
 
OHZ001>008-015>018-024>027-034-035-043-044-231200-  
NORTHWEST OHIO  
 
CITY SKY/WX TMP DP RH WIND PRES REMARKS
 
DEFIANCE FAIR 35 32 88 SW6 29.59S  
FINDLAY FOG 37 35 92 SW6 29.58S VSB 1/4  
TOLEDO EXPRESS FOG 33 31 92 CALM 29.57F VSB 1/4  
TOLEDO EXEC FOG 36 35 96 SW7 29.59S VSB 1/4  
LIMA FOG 39 38 96 SW6 29.59S VSB 1/4  

 
 
OHZ009>014-019>023-028>033-038-089-231200-  
NORTHEAST OHIO  
 
CITY SKY/WX TMP DP RH WIND PRES REMARKS
 
CLE-HOPKINS CLOUDY 41 39 93 SW7 29.56S FOG  
CLE-LAKEFRONT CLOUDY 42 38 85 SW5 29.56F FOG  
CUY CO. ARPT CLOUDY 39 N/A N/A SW6 29.57F FOG  
LORAIN-ELYRIA FOG 39 38 96 SW8 29.58S VSB 1/4  
ASHTABULA FOG 39 38 96 W3 29.56S VSB 1/2  
AKRON-CANTON CLOUDY 40 38 93 W5 29.57S FOG  
WOOSTER CLOUDY 40 38 93 W5 29.58F FOG  
MANSFIELD CLOUDY 40 39 97 SW6 29.57F FOG  
YOUNGSTOWN CLOUDY 40 37 89 NW5 29.56S FOG  

 
 
OHZ042-051>053-060>062-070>072-077>081-231200-  
SOUTHWEST OHIO  
 
CITY SKY/WX TMP DP RH WIND PRES REMARKS
 
CINC-COVINGTON CLOUDY 45 44 97 NW7 29.64S FOG  
CINC-LUNKEN MOCLDY 48 45 89 CALM 29.65S FOG  
HAMILTON CLOUDY 45 43 93 W3 29.65S FOG  
DAYTON FOG 40 40 100 SW6 29.62S VSB 1/16  
WRIGHT-PAT AFB CLOUDY 45 43 94 SW3 29.62R FOG  
DAYTON GENERAL CLOUDY 45 41 86 W6 29.62S FOG  
WILMINGTON MOCLDY 42 40 92 SW3 29.62S FOG  

 
 
OHZ036-037-039>041-045>050-054>059-063>069-073>076-082>088-231200-  
CENTRAL AND SOUTHEAST OHIO  
 
CITY SKY/WX TMP DP RH WIND PRES REMARKS
 
COLUMBUS CLOUDY 45 43 93 W3 29.60R FOG  
OSU AIRPORT FOG 45 43 93 CALM 29.60S VSB 1/2  
BOLTON FIELD CLOUDY 43 43 99 SW8 29.62R FOG  
RICKENBACK AFB CLOUDY 45 43 95 CALM 29.61S FOG  
NEWARK NOT AVBL  
MARION CLOUDY 43 42 97 W5 29.58S FOG  
LANCASTER CLOUDY 44 42 93 NW3 29.61S FOG  
ZANESVILLE CLOUDY 44 40 85 NW8 29.59S FOG  
NEW PHILLY CLOUDY 44 42 93 NW3 29.59R  

 
 
 
CLICK HERE TO GO TO PREVIOUS BULLETINS.

The Nexlab OH Page
The Nexlab PA Page Main Text Page